When you browse on this site, cookies collect data to enhance your experience and personalize the content and advertising you see.
Visit our Privacy Policy to learn more. By continuing to use the site, you agree to this use of cookies and data.
  • In Hungary
  • List of Countries
  • For 7 days
  • Water Temperature
  • Weather Map
  • News
  • Weather Widgets
  • user-avatar
    Login

    Hourly Weather Spokane

    Today, 9 April, Thursday

    Time Temperature Precipitation Wind Pressure Humidity
    00:00 +8°C° 0 mm 1 mps 707 mmHg 59%
    01:00 +7°C° 0 mm 1 mps 707 mmHg 63%
    02:00 +6°C° 0 mm 1 mps 707 mmHg 66%
    03:00 +6°C° 0 mm 1 mps 707 mmHg 70%
    04:00 +5°C° 0 mm 1 mps 707 mmHg 73%
    05:00 +6°C° 0 mm 1 mps 707 mmHg 71%
    06:00 +7°C° 0 mm 1 mps 706 mmHg 70%
    07:00 +7°C° 0 mm 1 mps 706 mmHg 68%
    08:00 +10°C° 0 mm 1 mps 706 mmHg 61%
    09:00 +12°C° 0 mm 1 mps 706 mmHg 54%
    10:00 +15°C° 0 mm 1 mps 706 mmHg 47%
    11:00 +16°C° 0 mm 1 mps 705 mmHg 43%
    12:00 +18°C° 0 mm 1 mps 705 mmHg 39%
    13:00 +19°C° 0 mm 1 mps 704 mmHg 35%
    14:00 +20°C° 0 mm 1 mps 703 mmHg 35%
    15:00 +20°C° 0 mm 1 mps 703 mmHg 35%
    16:00 +20°C° 0 mm 1 mps 702 mmHg 36%
    17:00 +18°C° 0 mm 1 mps 702 mmHg 42%
    18:00 +15°C° 0 mm 1 mps 702 mmHg 48%
    19:00 +13°C° 0 mm 1 mps 701 mmHg 54%
    20:00 +11°C° 0 mm 0 mps 701 mmHg 56%
    21:00 +10°C° 0 mm 0 mps 701 mmHg 58%
    22:00 +10°C° 0 mm 0 mps 701 mmHg 61%
    23:00 +9°C° 0 mm 0 mps 701 mmHg 63%

    Tomorrow, 10 April, Friday

    Time Temperature Precipitation Wind Pressure Humidity
    00:00 +10°C° 0 mm 1 mps 701 mmHg 65%
    01:00 +9°C° 0 mm 1 mps 701 mmHg 67%
    02:00 +9°C° 0 mm 1 mps 701 mmHg 70%
    03:00 +8°C° 0 mm 1 mps 701 mmHg 72%
    04:00 +8°C° 0 mm 1 mps 701 mmHg 74%
    05:00 +9°C° 0 mm 1 mps 701 mmHg 72%
    06:00 +9°C° 0 mm 1 mps 701 mmHg 70%
    07:00 +10°C° 0 mm 1 mps 701 mmHg 68%
    08:00 +12°C° 0 mm 1 mps 700 mmHg 62%
    09:00 +14°C° 0 mm 1 mps 700 mmHg 55%
    10:00 +16°C° 0 mm 1 mps 700 mmHg 49%
    11:00 +17°C° 0 mm 2 mps 700 mmHg 47%
    12:00 +18°C° 0 mm 2 mps 699 mmHg 45%
    13:00 +19°C° 0 mm 3 mps 699 mmHg 44%
    14:00 +19°C° 0 mm 3 mps 699 mmHg 45%
    15:00 +18°C° 0 mm 3 mps 698 mmHg 46%
    16:00 +18°C° 0 mm 4 mps 698 mmHg 47%
    17:00 +17°C° 0 mm 3 mps 698 mmHg 52%
    18:00 +14°C° 0 mm 3 mps 698 mmHg 56%
    19:00 +13°C° 0 mm 3 mps 697 mmHg 61%
    20:00 +13°C° 0.1 mm 2 mps 698 mmHg 63%
    21:00 +13°C° 0.1 mm 2 mps 698 mmHg 64%
    22:00 +12°C° 0.1 mm 1 mps 698 mmHg 66%
    23:00 +11°C° 0 mm 1 mps 698 mmHg 70%

    Day after tomorrow, 11 April, Saturday

    Time Temperature Precipitation Wind Pressure Humidity
    00:00 +10°C° 0 mm 1 mps 698 mmHg 75%
    01:00 +9°C° 0 mm 1 mps 698 mmHg 79%
    02:00 +9°C° 0 mm 1 mps 698 mmHg 80%
    03:00 +8°C° 0 mm 1 mps 698 mmHg 81%
    04:00 +8°C° 0 mm 1 mps 698 mmHg 82%
    05:00 +7°C° 0 mm 2 mps 699 mmHg 80%
    06:00 +7°C° 0 mm 3 mps 700 mmHg 77%
    07:00 +6°C° 0 mm 4 mps 701 mmHg 75%
    08:00 +6°C° 0.1 mm 5 mps 702 mmHg 71%
    09:00 +6°C° 0.1 mm 5 mps 702 mmHg 68%
    10:00 +5°C° 0.1 mm 6 mps 703 mmHg 64%
    11:00 +5°C° 0 mm 6 mps 704 mmHg 59%
    12:00 +5°C° 0 mm 6 mps 704 mmHg 55%
    13:00 +7°C° 0 mm 5 mps 705 mmHg 50%
    14:00 +7°C° 0 mm 5 mps 705 mmHg 46%
    15:00 +7°C° 0 mm 5 mps 705 mmHg 43%
    16:00 +7°C° 0 mm 4 mps 705 mmHg 39%
    17:00 +7°C° 0 mm 3 mps 706 mmHg 43%
    18:00 +5°C° 0 mm 3 mps 706 mmHg 47%
    19:00 +4°C° 0 mm 2 mps 707 mmHg 51%
    20:00 +3°C° 0 mm 2 mps 707 mmHg 51%
    21:00 +2°C° 0 mm 2 mps 708 mmHg 52%
    22:00 +2°C° 0 mm 2 mps 708 mmHg 52%
    23:00 +1°C° 0 mm 2 mps 709 mmHg 53%

    12 April, Sunday

    Time Temperature Precipitation Wind Pressure Humidity
    00:00 +2°C° 0 mm 1 mps 709 mmHg 54%
    01:00 +1°C° 0 mm 1 mps 709 mmHg 55%
    02:00 +1°C° 0 mm 1 mps 709 mmHg 57%
    03:00 +1°C° 0 mm 1 mps 709 mmHg 59%
    04:00 0°C° 0 mm 1 mps 710 mmHg 60%
    05:00 +1°C° 0 mm 1 mps 710 mmHg 57%
    06:00 +2°C° 0 mm 1 mps 710 mmHg 54%
    07:00 +3°C° 0 mm 1 mps 710 mmHg 51%
    08:00 +5°C° 0 mm 1 mps 710 mmHg 46%
    09:00 +7°C° 0 mm 1 mps 710 mmHg 40%
    10:00 +8°C° 0 mm 0 mps 710 mmHg 34%
    11:00 +10°C° 0 mm 1 mps 709 mmHg 33%
    12:00 +10°C° 0 mm 1 mps 709 mmHg 31%
    13:00 +10°C° 0 mm 2 mps 708 mmHg 30%
    14:00 +10°C° 0 mm 2 mps 708 mmHg 31%
    15:00 +10°C° 0 mm 2 mps 707 mmHg 32%
    16:00 +10°C° 0 mm 3 mps 707 mmHg 33%
    17:00 +9°C° 0 mm 2 mps 706 mmHg 38%
    18:00 +7°C° 0 mm 2 mps 706 mmHg 42%
    19:00 +6°C° 0 mm 2 mps 706 mmHg 47%
    20:00 +5°C° 0 mm 2 mps 706 mmHg 50%
    21:00 +4°C° 0 mm 2 mps 706 mmHg 53%
    22:00 +4°C° 0 mm 1 mps 707 mmHg 56%
    23:00 +4°C° 0 mm 1 mps 707 mmHg 57%

    13 April, Monday

    Time Temperature Precipitation Wind Pressure Humidity
    00:00 +3°C° 0 mm 1 mps 707 mmHg 59%
    01:00 +3°C° 0 mm 1 mps 707 mmHg 60%
    02:00 +2°C° 0 mm 1 mps 707 mmHg 62%
    03:00 +2°C° 0 mm 1 mps 708 mmHg 64%
    04:00 +1°C° 0 mm 1 mps 708 mmHg 66%
    05:00 +2°C° 0 mm 1 mps 708 mmHg 63%
    06:00 +3°C° 0 mm 1 mps 708 mmHg 61%
    07:00 +3°C° 0 mm 2 mps 709 mmHg 59%
    08:00 +6°C° 0 mm 1 mps 709 mmHg 52%
    09:00 +8°C° 0 mm 1 mps 709 mmHg 44%
    10:00 +10°C° 0 mm 1 mps 709 mmHg 36%
    11:00 +11°C° 0 mm 1 mps 709 mmHg 33%
    12:00 +12°C° 0 mm 1 mps 708 mmHg 30%
    13:00 +12°C° 0 mm 1 mps 708 mmHg 27%
    14:00 +12°C° 0 mm 2 mps 708 mmHg 28%
    15:00 +12°C° 0 mm 2 mps 707 mmHg 29%
    16:00 +12°C° 0 mm 2 mps 707 mmHg 30%
    17:00 +10°C° 0 mm 2 mps 707 mmHg 35%
    18:00 +9°C° 0 mm 2 mps 707 mmHg 39%
    19:00 +7°C° 0 mm 2 mps 707 mmHg 43%
    20:00 +7°C° 0 mm 2 mps 707 mmHg 45%
    21:00 +7°C° 0 mm 1 mps 707 mmHg 48%
    22:00 +6°C° 0 mm 1 mps 708 mmHg 50%
    23:00 +6°C° 0 mm 1 mps 708 mmHg 53%

    14 April, Tuesday

    Time Temperature Precipitation Wind Pressure Humidity
    00:00 +5°C° 0 mm 1 mps 708 mmHg 56%
    01:00 +4°C° 0 mm 1 mps 708 mmHg 59%
    02:00 +4°C° 0 mm 1 mps 708 mmHg 61%
    03:00 +3°C° 0 mm 1 mps 708 mmHg 64%
    04:00 +2°C° 0 mm 1 mps 708 mmHg 67%
    05:00 +3°C° 0 mm 1 mps 709 mmHg 63%
    06:00 +4°C° 0 mm 1 mps 709 mmHg 60%
    07:00 +4°C° 0 mm 2 mps 709 mmHg 57%
    08:00 +7°C° 0 mm 1 mps 709 mmHg 51%
    09:00 +9°C° 0 mm 1 mps 710 mmHg 46%
    10:00 +12°C° 0 mm 1 mps 710 mmHg 40%
    11:00 +13°C° 0 mm 1 mps 709 mmHg 37%
    12:00 +14°C° 0 mm 1 mps 709 mmHg 33%
    13:00 +16°C° 0 mm 1 mps 709 mmHg 30%
    14:00 +16°C° 0 mm 1 mps 709 mmHg 30%
    15:00 +15°C° 0 mm 1 mps 708 mmHg 30%
    16:00 +15°C° 0 mm 1 mps 708 mmHg 29%
    17:00 +13°C° 0 mm 1 mps 708 mmHg 34%
    18:00 +12°C° 0 mm 1 mps 708 mmHg 38%
    19:00 +10°C° 0 mm 1 mps 708 mmHg 43%
    20:00 +9°C° 0 mm 1 mps 708 mmHg 45%
    21:00 +9°C° 0 mm 1 mps 708 mmHg 47%
    22:00 +8°C° 0 mm 1 mps 709 mmHg 48%
    23:00 +8°C° 0 mm 1 mps 709 mmHg 51%
    Show more